Radiation Dose at Monitoring Post of Fukushima Daini Nuclear Power Station
Date,Time,MP-1(microSv/h),MP-2(microSv/h),MP-3(microSv/h),MP-4(microSv/h),MP-5(microSv/h),MP-6(microSv/h),MP-7(microSv/h),Wind Direction,Wind Velocity(m/s),Rain
2019/06/21,00:00,0.190,0.170,0.286,0.268,0.269,0.142,0.088,north,1.2,Yes
2019/06/21,00:10,0.189,0.171,0.286,0.271,0.266,0.143,0.089,northwest,0.9,Yes
2019/06/21,00:20,0.191,0.170,0.285,0.268,0.269,0.143,0.088,north-northwest,1.3,No
2019/06/21,00:30,0.187,0.171,0.287,0.270,0.267,0.143,0.089,north-northwest,1.4,No
2019/06/21,00:40,0.190,0.171,0.286,0.269,0.269,0.142,0.089,north-northwest,1.9,No
2019/06/21,00:50,0.189,0.172,0.285,0.269,0.267,0.143,0.089,north-northwest,1.8,No
2019/06/21,01:00,0.189,0.171,0.288,0.270,0.268,0.144,0.088,north-northwest,3.1,No
2019/06/21,01:10,0.189,0.170,0.285,0.269,0.269,0.143,0.090,north-northwest,2.9,No
2019/06/21,01:20,0.189,0.170,0.288,0.269,0.267,0.143,0.089,north-northwest,2.2,No
2019/06/21,01:30,0.190,0.171,0.286,0.269,0.270,0.143,0.089,north,2.7,No
2019/06/21,01:40,0.189,0.171,0.288,0.271,0.267,0.142,0.089,north-northwest,2.3,No
2019/06/21,01:50,0.190,0.171,0.286,0.268,0.269,0.143,0.089,north-northwest,1.8,No
2019/06/21,02:00,0.189,0.172,0.287,0.272,0.269,0.143,0.090,north,1.4,No
2019/06/21,02:10,0.189,0.171,0.286,0.268,0.268,0.144,0.088,north-northeast,1.6,No
2019/06/21,02:20,0.189,0.170,0.285,0.270,0.268,0.142,0.089,north,0.8,No
2019/06/21,02:30,0.190,0.171,0.286,0.269,0.267,0.143,0.087,north-northeast,1.2,No
2019/06/21,02:40,0.189,0.170,0.286,0.269,0.269,0.143,0.089,north-northwest,0.6,No
2019/06/21,02:50,0.190,0.170,0.286,0.269,0.267,0.142,0.088,-,CALM,No
2019/06/21,03:00,0.190,0.171,0.284,0.268,0.269,0.143,0.089,-,CALM,No
2019/06/21,03:10,0.188,0.170,0.287,0.270,0.267,0.142,0.088,-,CALM,No
2019/06/21,03:20,0.190,0.171,0.285,0.268,0.267,0.142,0.089,-,CALM,No
2019/06/21,03:30,0.188,0.170,0.287,0.271,0.269,0.143,0.089,-,CALM,No
2019/06/21,03:40,0.190,0.170,0.286,0.269,0.266,0.142,0.088,-,CALM,No
2019/06/21,03:50,0.189,0.170,0.287,0.269,0.268,0.143,0.089,-,CALM,No
2019/06/21,04:00,0.189,0.172,0.287,0.270,0.265,0.142,0.088,-,CALM,No
2019/06/21,04:10,0.189,0.170,0.285,0.268,0.268,0.143,0.089,-,CALM,No
2019/06/21,04:20,0.189,0.170,0.288,0.272,0.268,0.142,0.089,-,CALM,No
2019/06/21,04:30,0.189,0.170,0.285,0.268,0.265,0.142,0.089,-,CALM,No
2019/06/21,04:40,0.189,0.171,0.287,0.270,0.270,0.143,0.089,northeast,0.7,No
2019/06/21,04:50,0.189,0.171,0.284,0.268,0.265,0.143,0.089,northeast,1.3,No
2019/06/21,05:00,0.188,0.171,0.287,0.271,0.269,0.141,0.088,north-northeast,0.8,No
2019/06/21,05:10,0.188,0.170,0.284,0.268,0.266,0.142,0.088,north-northeast,1.5,No
2019/06/21,05:20,0.189,0.171,0.286,0.269,0.268,0.143,0.088,north-northeast,1.0,No
2019/06/21,05:30,0.190,0.170,0.285,0.271,0.268,0.142,0.088,northeast,1.1,No
2019/06/21,05:40,0.189,0.171,0.286,0.268,0.266,0.142,0.088,northeast,1.5,No
2019/06/21,05:50,0.190,0.170,0.286,0.271,0.268,0.143,0.088,north-northeast,1.1,No
2019/06/21,06:00,0.189,0.170,0.286,0.267,0.266,0.142,0.088,northeast,1.1,No
2019/06/21,06:10,0.189,0.169,0.288,0.270,0.268,0.143,0.088,north-northeast,0.9,No
2019/06/21,06:20,0.189,0.170,0.285,0.267,0.266,0.142,0.089,northeast,1.2,No
2019/06/21,06:30,0.189,0.170,0.287,0.269,0.268,0.142,0.088,north-northeast,0.9,No
2019/06/21,06:40,0.190,0.171,0.284,0.269,0.267,0.142,0.089,north-northeast,1.1,No
2019/06/21,06:50,0.188,0.170,0.287,0.268,0.267,0.142,0.088,north-northeast,1.3,No
2019/06/21,07:00,0.190,0.169,0.284,0.269,0.268,0.142,0.088,north,1.3,No
2019/06/21,07:10,0.188,0.170,0.286,0.268,0.264,0.142,0.088,north,1.1,No
2019/06/21,07:20,0.190,0.170,0.285,0.268,0.267,0.143,0.088,north-northeast,0.9,No
2019/06/21,07:30,0.188,0.172,0.286,0.268,0.267,0.142,0.088,north,0.6,No
2019/06/21,07:40,0.188,0.169,0.286,0.271,0.265,0.141,0.088,north-northwest,0.9,No
2019/06/21,07:50,0.189,0.170,0.284,0.269,0.267,0.143,0.089,north-northwest,0.9,No
2019/06/21,08:00,0.188,0.170,0.287,0.268,0.265,0.142,0.088,north,0.9,No
2019/06/21,08:10,0.190,0.170,0.284,0.271,0.267,0.142,0.088,east-northeast,0.9,No
2019/06/21,08:20,0.188,0.170,0.287,0.267,0.267,0.143,0.089,-,CALM,No
2019/06/21,08:30,0.190,0.171,0.285,0.270,0.265,0.142,0.088,-,CALM,No
2019/06/21,08:40,0.189,0.171,0.286,0.267,0.272,0.143,0.089,-,CALM,No
2019/06/21,08:50,0.189,0.169,0.286,0.268,0.267,0.143,0.088,southeast,0.7,No
2019/06/21,09:00,0.190,0.171,0.284,0.270,0.267,0.143,0.088,southeast,1.1,No
2019/06/21,09:10,0.187,0.169,0.287,0.268,0.269,0.143,0.088,south,0.8,No
2019/06/21,09:20,0.190,0.170,0.284,0.271,0.266,0.142,0.087,south-southeast,1.1,No
2019/06/21,09:30,0.189,0.171,0.287,0.269,0.270,0.142,0.089,southeast,1.3,No
2019/06/21,09:40,0.188,0.170,0.286,0.269,0.267,0.142,0.089,south-southeast,1.3,No
2019/06/21,09:50,0.188,0.171,0.284,0.269,0.265,0.142,0.087,south,1.1,No
2019/06/21,10:00,0.188,0.171,0.286,0.268,0.267,0.143,0.089,south-southeast,1.8,No
2019/06/21,10:10,0.187,0.170,0.284,0.267,0.268,0.143,0.089,south-southeast,2.1,No
2019/06/21,10:20,0.191,0.171,0.286,0.269,0.266,0.142,0.088,south-southeast,1.7,No
2019/06/21,10:30,0.188,0.169,0.286,0.267,0.267,0.142,0.089,south,2.0,No
2019/06/21,10:40,0.188,0.170,0.284,0.270,0.270,0.143,0.088,south-southeast,2.2,No
2019/06/21,10:50,0.190,0.172,0.287,0.268,0.266,0.143,0.088,south-southeast,2.9,No
2019/06/21,11:00,0.187,0.169,0.285,0.268,0.267,0.142,0.089,south-southeast,3.4,No
2019/06/21,11:10,0.190,0.172,0.283,0.270,0.269,0.143,0.088,south-southeast,3.5,No
2019/06/21,11:20,0.189,0.171,0.287,0.268,0.267,0.143,0.088,south-southeast,3.2,No
2019/06/21,11:30,0.188,0.169,0.286,0.266,0.265,0.141,0.088,southeast,3.5,No
2019/06/21,11:40,0.187,0.169,0.285,0.266,0.265,0.142,0.089,southeast,4.0,No
2019/06/21,11:50,0.190,0.172,0.284,0.269,0.264,0.144,0.088,southeast,3.1,No
2019/06/21,12:00,0.190,0.171,0.288,0.270,0.266,0.143,0.088,southeast,2.7,No
2019/06/21,12:10,0.188,0.169,0.285,0.267,0.269,0.141,0.089,south-southeast,3.1,No
2019/06/21,12:20,0.188,0.169,0.284,0.268,0.268,0.142,0.088,south-southeast,3.7,No
2019/06/21,12:30,0.191,0.171,0.287,0.272,0.266,0.143,0.088,southeast,3.2,No
2019/06/21,12:40,0.189,0.171,0.289,0.269,0.265,0.143,0.088,south-southeast,4.1,No
2019/06/21,12:50,0.188,0.169,0.282,0.267,0.269,0.142,0.088,south-southeast,3.5,No
2019/06/21,13:00,0.188,0.171,0.286,0.270,0.268,0.144,0.090,southeast,3.3,No
2019/06/21,13:10,0.191,0.173,0.288,0.271,0.267,0.143,0.088,southeast,4.5,No
2019/06/21,13:20,0.189,0.170,0.286,0.267,0.266,0.142,0.088,south-southeast,3.4,No
2019/06/21,13:30,0.187,0.169,0.285,0.268,0.268,0.142,0.088,south-southeast,3.4,No
2019/06/21,13:40,0.188,0.170,0.287,0.271,0.271,0.143,0.089,south-southeast,3.8,No
2019/06/21,13:50,0.190,0.172,0.286,0.269,0.268,0.143,0.088,south-southeast,3.8,No
2019/06/21,14:00,0.189,0.171,0.285,0.265,0.266,0.142,0.088,south-southeast,3.8,No
2019/06/21,14:10,0.189,0.169,0.283,0.265,0.266,0.142,0.087,south-southeast,4.5,No
2019/06/21,14:20,0.189,0.170,0.285,0.271,0.265,0.143,0.089,south-southeast,4.3,No
2019/06/21,14:30,0.187,0.170,0.289,0.271,0.268,0.143,0.088,south-southeast,5.0,No
2019/06/21,14:40,0.190,0.171,0.286,0.268,0.269,0.142,0.088,south-southeast,3.9,No
2019/06/21,14:50,0.189,0.170,0.284,0.269,0.267,0.143,0.089,south-southeast,5.9,No
2019/06/21,15:00,0.188,0.170,0.287,0.271,0.265,0.143,0.089,south-southeast,4.9,No
2019/06/21,15:10,0.188,0.172,0.287,0.269,0.268,0.142,0.088,south-southeast,3.7,No
2019/06/21,15:20,0.190,0.171,0.284,0.270,0.269,0.142,0.088,southeast,1.8,No
2019/06/21,15:30,0.190,0.169,0.289,0.271,0.267,0.143,0.089,-,CALM,No
2019/06/21,15:40,0.188,0.172,0.287,0.269,0.269,0.142,0.088,south-southeast,3.4,No
2019/06/21,15:50,0.190,0.172,0.286,0.269,0.270,0.144,0.087,south-southeast,3.8,No
2019/06/21,16:00,0.188,0.171,0.288,0.271,0.266,0.143,0.089,south-southeast,1.1,No
2019/06/21,16:10,0.188,0.172,0.286,0.267,0.270,0.141,0.088,south-southeast,1.7,Yes
2019/06/21,16:20,0.190,0.172,0.285,0.272,0.269,0.144,0.088,south-southeast,4.6,No
2019/06/21,16:30,0.189,0.171,0.287,0.272,0.267,0.143,0.088,south,4.6,No
2019/06/21,16:40,0.188,0.171,0.284,0.268,0.267,0.142,0.087,south,4.3,Yes
2019/06/21,16:50,0.191,0.171,0.286,0.271,0.268,0.143,0.089,south,4.4,No
2019/06/21,17:00,0.189,0.170,0.287,0.271,0.266,0.143,0.089,south,4.8,No
2019/06/21,17:10,0.188,0.171,0.284,0.267,0.267,0.142,0.088,south,4.1,No
2019/06/21,17:20,0.191,0.171,0.288,0.271,0.269,0.143,0.088,south,4.0,No
2019/06/21,17:30,0.190,0.171,0.288,0.271,0.266,0.142,0.088,south,5.1,No
2019/06/21,17:40,0.187,0.172,0.286,0.268,0.267,0.142,0.088,south-southeast,5.1,No
2019/06/21,17:50,0.190,0.171,0.287,0.271,0.269,0.144,0.089,south-southeast,6.4,No
2019/06/21,18:00,0.190,0.171,0.286,0.269,0.265,0.143,0.089,south,5.9,No
2019/06/21,18:10,0.188,0.172,0.285,0.269,0.267,0.142,0.088,south,6.7,No
2019/06/21,18:20,0.190,0.171,0.288,0.272,0.269,0.143,0.089,south-southeast,6.7,No
2019/06/21,18:30,0.189,0.173,0.284,0.269,0.266,0.144,0.089,south,6.8,No
2019/06/21,18:40,0.188,0.171,0.287,0.269,0.270,0.142,0.087,south,6.0,No
2019/06/21,18:50,0.190,0.171,0.288,0.270,0.268,0.143,0.089,south,5.6,No
2019/06/21,19:00,0.189,0.173,0.286,0.268,0.267,0.142,0.088,south,5.4,No
2019/06/21,19:10,0.189,0.171,0.288,0.271,0.270,0.143,0.089,south,5.1,No
2019/06/21,19:20,0.191,0.171,0.286,0.270,0.267,0.143,0.089,south,5.7,No
2019/06/21,19:30,0.189,0.171,0.286,0.268,0.268,0.143,0.088,south,6.3,No
2019/06/21,19:40,0.190,0.171,0.287,0.272,0.269,0.143,0.088,south,6.3,No
2019/06/21,19:50,0.190,0.171,0.285,0.269,0.266,0.143,0.088,south,6.5,No
2019/06/21,20:00,0.188,0.170,0.288,0.271,0.270,0.141,0.088,south,5.9,No
2019/06/21,20:10,0.190,0.172,0.286,0.271,0.267,0.143,0.088,south,7.1,No
2019/06/21,20:20,0.189,0.170,0.287,0.269,0.268,0.143,0.088,south,7.0,No
2019/06/21,20:30,0.190,0.172,0.287,0.272,0.270,0.142,0.089,south,7.8,No
2019/06/21,20:40,0.191,0.171,0.284,0.269,0.266,0.144,0.089,south,7.0,No
2019/06/21,20:50,0.188,0.171,0.288,0.270,0.270,0.142,0.089,south,7.7,No
2019/06/21,21:00,0.190,0.172,0.287,0.270,0.268,0.142,0.089,south,7.6,No
2019/06/21,21:10,0.189,0.170,0.287,0.269,0.268,0.143,0.088,south,6.8,No
2019/06/21,21:20,0.190,0.171,0.286,0.271,0.269,0.142,0.089,south,6.6,No
2019/06/21,21:30,0.190,0.169,0.286,0.269,0.267,0.144,0.088,south,6.6,No
2019/06/21,21:40,0.189,0.171,0.287,0.269,0.268,0.144,0.089,south,6.4,No
2019/06/21,21:50,0.191,0.170,0.284,0.270,0.268,0.142,0.089,south,5.2,No
2019/06/21,22:00,0.188,0.172,0.287,0.269,0.269,0.144,0.088,south,5.1,No
2019/06/21,22:10,0.189,0.171,0.287,0.270,0.269,0.143,0.089,south,5.1,No
2019/06/21,22:20,0.190,0.171,0.285,0.269,0.266,0.143,0.088,south,4.8,No
2019/06/21,22:30,0.188,0.171,0.288,0.269,0.270,0.143,0.089,south,4.8,No
2019/06/21,22:40,0.189,0.170,0.284,0.271,0.268,0.142,0.089,south,5.3,No
2019/06/21,22:50,0.188,0.171,0.288,0.268,0.267,0.143,0.088,south,6.2,No
2019/06/21,23:00,0.188,0.170,0.287,0.270,0.269,0.143,0.088,south,7.0,No
2019/06/21,23:10,0.190,0.172,0.283,0.268,0.266,0.142,0.088,south,6.2,No
2019/06/21,23:20,0.189,0.170,0.287,0.271,0.268,0.143,0.089,south,6.3,No
2019/06/21,23:30,0.189,0.171,0.285,0.270,0.269,0.143,0.089,south,5.5,No
2019/06/21,23:40,0.189,0.171,0.287,0.268,0.266,0.143,0.088,south,5.7,No
2019/06/21,23:50,0.188,0.170,0.288,0.271,0.269,0.144,0.089,south,5.7,No
